Weather History for KGLD - May, 2013

Change the Weather History Date:

Saturday, May 4, 2013

  Actual Average Record
Temperature  
Mean Temperature 43 °F 55 °F  
Max Temperature 60 °F 69 °F 91 °F (1965)
Min Temperature 26 °F 41 °F 23 °F (1907)
Degree Days  
Heating Degree Days 22 10  
Month to date heating degree days 98 42  
Since 1 July heating degree days 5848 5697  
Cooling Degree Days 0 1  
Month to date cooling degree days 0 2  
Year to date cooling degree days 0 6  
Moisture  
Dew Point 16 °F    
Average Humidity 45    
Maximum Humidity 78    
Minimum Humidity 12    
Precipitation  
Precipitation 0.00 in 0.08 in 1.49 in (2001)
Month to date precipitation 0.19 0.30  
Year to date precipitation 3.28 3.83  
Snow  
Snow 0.00 in 0.10 in - ()
Month to date snowfall 3.5 0.2  
Since 1 July snowfall 59.2 35.2  
Snow Depth 0.00 in    
Sea Level Pressure  
Sea Level Pressure 30.16 in    
Wind  
Wind Speed 12 mph (North)    
Max Wind Speed 30 mph    
Max Gust Speed 37 mph    
Visibility 10 miles    
Events      
T = Trace of Precipitation, MM = Missing Value Source: NWS Daily Summary

Daily Weather History Graph

Daily Weather History Graph

Search for Another Location

Airport or City:

Trip Planner

Search our weather history database for the weather conditions in past years. The results will help you decide how hot, cold, wet, or windy it might be!

Date:

Astronomy

May. 04, 2013 Rise Set
Actual Time 5:44 AM MDT 7:43 PM MDT
Civil Twilight 5:14 AM MDT 8:12 PM MDT
Nautical Twilight 4:39 AM MDT 8:48 PM MDT
Astronomical Twilight 4:00 AM MDT 9:27 PM MDT
Moon 2:41 AM MDT (5/4) 2:44 PM MDT (5/4)
Length of Visible Light 14h 58m
Length of Day
13h 59m
Waning Crescent, 26% of the Moon is Illuminated
May 4
Waning Crescent
May 9
New
May 17
First Quarter
May 24
Full
May 31
Last Quarter

Hourly Weather History & Observations

Time (MDT) Temp. Windchill Dew Point Humidity Pressure Visibility Wind Dir Wind Speed Gust Speed Precip Events Conditions
12:53 AM 30.9 °F - 23.0 °F 72% 30.14 in 10.0 mi Calm Calm - N/A   Clear
1:53 AM 30.0 °F 26.5 °F 24.1 °F 79% 30.13 in 10.0 mi NNW 3.5 mph - N/A   Clear
2:53 AM 28.9 °F 22.8 °F 21.9 °F 75% 30.13 in 10.0 mi NNW 5.8 mph - N/A   Clear
3:53 AM 28.0 °F 21.7 °F 21.0 °F 75% 30.14 in 10.0 mi North 5.8 mph - N/A   Clear
4:53 AM 27.0 °F 21.6 °F 19.9 °F 75% 30.14 in 10.0 mi North 4.6 mph - N/A   Clear
5:53 AM 27.0 °F 23.0 °F 19.0 °F 72% 30.16 in 10.0 mi NW 3.5 mph - N/A   Clear
6:53 AM 30.9 °F 24.3 °F 24.1 °F 76% 30.16 in 10.0 mi NNW 6.9 mph - N/A   Clear
7:53 AM 37.9 °F 30.5 °F 21.9 °F 53% 30.18 in 10.0 mi North 11.5 mph - N/A   Clear
8:53 AM 43.0 °F 35.7 °F 19.0 °F 38% 30.18 in 10.0 mi North 15.0 mph - N/A   Clear
9:53 AM 46.9 °F - 16.0 °F 29% 30.17 in 10.0 mi North 20.7 mph - N/A   Clear
10:53 AM 50.0 °F - 15.1 °F 25% 30.17 in 10.0 mi North 20.7 mph 28.8 mph N/A   Clear
11:53 AM 54.0 °F - 12.9 °F 20% 30.15 in 10.0 mi North 19.6 mph 28.8 mph N/A   Clear
12:53 PM 55.9 °F - 10.9 °F 17% 30.15 in 10.0 mi North 20.7 mph 28.8 mph N/A   Clear
1:53 PM 57.9 °F - 7.0 °F 13% 30.13 in 10.0 mi North 19.6 mph 32.2 mph N/A   Clear
2:53 PM 59.0 °F - 8.1 °F 13% 30.12 in 10.0 mi North 26.5 mph 33.4 mph N/A   Clear
3:53 PM 60.1 °F - 8.1 °F 13% 30.10 in 10.0 mi North 19.6 mph 29.9 mph N/A   Clear
4:53 PM 59.0 °F - 7.0 °F 13% 30.12 in 10.0 mi NNE 21.9 mph 31.1 mph N/A   Clear
5:53 PM 57.0 °F - 8.1 °F 14% 30.13 in 10.0 mi North 17.3 mph 25.3 mph N/A   Clear
6:53 PM 54.0 °F - 10.0 °F 17% 30.14 in 10.0 mi NNE 13.8 mph - N/A   Clear
7:53 PM 42.1 °F 37.1 °F 14.0 °F 32% 30.18 in 10.0 mi NNE 8.1 mph - N/A   Clear
8:53 PM 37.0 °F 30.4 °F 17.1 °F 44% 30.20 in 10.0 mi NNE 9.2 mph - N/A   Clear
9:53 PM 35.1 °F 31.0 °F 18.0 °F 50% 30.23 in 10.0 mi North 4.6 mph - N/A   Clear
10:53 PM 32.0 °F 25.6 °F 18.0 °F 56% 30.23 in 10.0 mi NE 6.9 mph - N/A   Clear
11:53 PM 30.9 °F - 19.0 °F 61% 30.24 in 10.0 mi Calm Calm - N/A   Clear